This is the latest recevied weather packets stored in our database for station/object AI5YA-13. If no packets are shown the sender has not sent any weather packets the latest 10 day(s).
| Time | Temp. | Humidity | Pressure | Rain* | Wind** | Luminosity | Snow |
|---|---|---|---|---|---|---|---|
| 1777840459 | 24.44° C | 38% | 1018.4 hPa | 0 mm | - | 382 W/m² | - |
| 1777840156 | 23.89° C | 38% | 1018.1 hPa | 0 mm | - | 429 W/m² | - |
| 1777839854 | 23.33° C | 39% | 1018.1 hPa | 0 mm | - | 619 W/m² | - |
| 1777839552 | 23.89° C | 38% | 1018.4 hPa | 0 mm | - | 645 W/m² | - |
| 1777839249 | 23.33° C | 40% | 1018.6 hPa | 0 mm | - | 719 W/m² | - |
| 1777838947 | 23.89° C | 38% | 1018.7 hPa | 0 mm | - | 657 W/m² | - |
| 1777838340 | 23.33° C | 38% | 1018.7 hPa | 0 mm | - | 702 W/m² | - |
| 1777838036 | 23.33° C | 38% | 1018.9 hPa | 0 mm | - | 702 W/m² | - |
| 1777837733 | 23.89° C | 37% | 1019.1 hPa | 0 mm | - | 737 W/m² | - |
| 1777837429 | 23.89° C | 38% | 1019.1 hPa | 0 mm | - | 751 W/m² | - |
| 1777837126 | 23.89° C | 38% | 1018.9 hPa | 0 mm | - | 728 W/m² | - |
| 1777836821 | 23.33° C | 39% | 1019.1 hPa | 0 mm | - | 698 W/m² | - |
| 1777836517 | 22.78° C | 40% | 1019.1 hPa | 0 mm | - | 634 W/m² | - |
| 1777836213 | 23.33° C | 39% | 1019.5 hPa | 0 mm | - | 777 W/m² | - |
| 1777835910 | 23.33° C | 40% | 1019.7 hPa | 0 mm | - | 762 W/m² | - |
| 1777835607 | 23.33° C | 40% | 1019.9 hPa | 0 mm | - | 767 W/m² | - |
| 1777835303 | 23.89° C | 40% | 1019.9 hPa | 0 mm | - | 783 W/m² | - |
| 1777835001 | 22.78° C | 40% | 1019.8 hPa | 0 mm | - | 769 W/m² | - |
| 1777834698 | 22.78° C | 42% | 1020 hPa | 0 mm | - | 722 W/m² | - |
| 1777834393 | 23.33° C | 40% | 1020.2 hPa | 0 mm | - | 745 W/m² | - |
| 1777834088 | 22.78° C | 41% | 1019.9 hPa | 0 mm | - | 690 W/m² | - |
| 1777833785 | 22.78° C | 41% | 1020.2 hPa | 0 mm | - | 726 W/m² | - |
| 1777833480 | 22.22° C | 41% | 1020.2 hPa | 0 mm | - | 637 W/m² | - |
| 1777833178 | 22.78° C | 42% | 1020.1 hPa | 0 mm | - | 745 W/m² | - |
| 1777832875 | 22.78° C | 41% | 1020.3 hPa | 0 mm | - | 610 W/m² | - |
* Rain latest hour (hover to see other rain measurements)
** Current wind speed in m/s (hover to see current wind gust speed)